DK5GB Weather Reports


time (UTC)temp
F
wind
direction
speed
knots
gust
knots
rain 1hr
in
rain 24hr
in
rain mn
in
humidity
%
barometer
mb
20260507030536 48 0.0 0.9 0.01 1.04 0.10 94 1014.6
20260507025518 49 0.0 0.9 0.02 1.04 0.10 94 1014.6
20260507024516 49 0.0 0.0 0.01 1.03 0.09 94 1014.5
20260507023516 49 0.0 0.9 0.01 1.03 0.09 94 1014.3
20260507022516 49 0.0 0.9 0.01 1.03 0.09 94 1014.2
20260507021537 49 0.0 0.0 0.02 1.03 0.09 94 1014.1
20260507020516 49 0.0 1.7 0.02 1.03 0.09 94 1014.0
20260507015516 49 0.0 0.0 0.01 1.02 0.08 94 1013.8
20260507014517 49 0.0 0.9 0.02 1.02 0.08 94 1013.7
20260507013516 49 0.0 0.0 0.03 1.02 0.08 94 1013.6
20260507012516 49 0.0 0.9 0.03 1.02 0.08 93 1013.6
20260507011516 49 0.0 0.9 0.02 1.01 0.07 94 1013.7
20260507010516 49 0.0 0.9 0.02 1.01 0.07 93 1013.6
20260507005516 49 0.0 0.9 0.03 1.01 0.07 93 1013.7
20260507004516 49 0.0 0.9 0.02 1.00 0.06 93 1013.6
20260507003516 49 0.0 0.9 0.01 0.99 0.05 93 1013.5
20260507002517 49 0.0 0.9 0.01 0.99 0.05 93 1013.6
20260507001516 49 0.0 0.9 0.01 0.99 0.05 93 1013.6
20260507000536 49 0.0 1.7 0.01 0.99 0.05 93 1013.6
20260506235516 49 0.0 0.9 0.00 0.98 0.04 93 1013.8
20260506234516 49 0.0 0.9 0.01 0.98 0.04 93 1013.7
20260506233516 49 0.0 0.9 0.01 0.98 0.04 93 1013.8
20260506232516 49 0.0 0.9 0.02 0.98 0.04 93 1013.9
20260506231516 49 0.0 0.9 0.03 0.98 0.04 93 1013.9
20260506230516 49 0.0 0.9 0.04 0.98 0.04 93 1013.8
20260506225516 49 0.0 0.9 0.05 0.98 0.04 93 1013.9
20260506224537 49 0.0 1.7 0.05 0.97 0.03 93 1013.9
20260506223516 49 0.0 0.9 0.06 0.97 0.03 93 1014.0
20260506222516 50 0.0 0.9 0.06 0.96 0.02 93 1013.8
20260506221516 50 0.0 0.9 0.05 0.95 0.01 93 1013.9
20260506220516 50 0.0 1.7 0.04 0.94 0.00 93 1013.7
20260506215516 50 0.0 1.7 0.03 0.93 0.93 93 1013.5
20260506214516 50 0.0 0.9 0.03 0.92 0.92 93 1013.5
20260506213516 50 0.0 2.6 0.02 0.91 0.91 93 1013.3
20260506212516 50 0.0 0.9 0.01 0.90 0.90 93 1013.3
20260506211516 50 0.0 2.6 0.02 0.90 0.90 93 1013.2
20260506210536 51 293 0.9 2.6 0.03 0.90 0.90 93 1013.1
20260506205516 51 0.0 1.7 0.05 0.90 0.90 93 1012.9
20260506204517 51 315 0.9 2.6 0.07 0.89 0.89 93 1012.9
20260506203516 51 23 0.9 1.7 0.10 0.89 0.89 93 1012.9
20260506202516 51 23 0.9 2.6 0.11 0.89 0.89 93 1012.8
20260506201516 51 293 0.9 1.7 0.12 0.88 0.88 93 1012.8
20260506200516 51 315 0.9 1.7 0.12 0.87 0.87 93 1012.7
20260506195516 51 0.0 1.7 0.11 0.85 0.85 92 1012.7
20260506194515 51 0.0 1.7 0.09 0.82 0.82 93 1012.6
20260506193516 51 0.0 1.7 0.07 0.79 0.79 93 1012.4
20260506192536 52 0.0 1.7 0.06 0.78 0.78 92 1012.2
20260506191515 52 0.0 1.7 0.05 0.76 0.76 93 1012.1
20260506190536 52 0.0 1.7 0.05 0.75 0.75 92 1011.9
20260506185516 52 293 0.9 2.6 0.04 0.74 0.74 92 1011.8
20260506184515 52 0.0 1.7 0.04 0.73 0.73 92 1011.5
20260506183516 52 0.0 0.9 0.03 0.72 0.72 92 1011.5
20260506182537 52 0.0 0.9 0.03 0.72 0.72 92 1011.4
20260506181516 53 0.0 0.9 0.02 0.72 0.71 92 1011.2
20260506180515 53 0.0 0.9 0.01 0.71 0.70 92 1011.1
20260506175515 53 0.0 0.9 0.01 0.72 0.70 92 1011.1
20260506174515 53 0.0 1.7 0.00 0.71 0.69 92 1011.0
20260506173536 53 0.0 0.9 0.00 0.72 0.69 92 1011.0
20260506172516 53 0.0 0.9 0.00 0.72 0.69 92 1010.8
20260506171515 53 0.0 0.0 0.00 0.73 0.69 92 1010.8
20260506170516 53 0.0 0.0 0.00 0.73 0.69 92 1010.8
20260506165515 54 0.0 0.0 0.00 0.73 0.69 92 1010.7
20260506164515 54 0.0 0.0 0.00 0.73 0.69 92 1010.8
20260506163515 54 0.0 0.0 0.00 0.73 0.69 92 1010.7
20260506162536 54 0.0 0.9 0.01 0.73 0.69 91 1010.8
20260506161515 54 0.0 0.0 0.01 0.73 0.69 92 1010.7
20260506160515 54 0.0 0.9 0.01 0.73 0.69 92 1010.8
20260506155515 54 0.0 0.9 0.03 0.73 0.69 91 1010.7
20260506154515 54 0.0 1.7 0.07 0.73 0.69 91 1010.7
20260506153515 54 0.0 0.0 0.13 0.73 0.69 91 1010.6
20260506152515 54 0.0 2.6 0.17 0.72 0.68 91 1010.6
20260506151515 54 0.0 0.9 0.24 0.72 0.68 91 1010.7
20260506150537 54 0.0 0.9 0.31 0.72 0.68 91 1010.6
20260506145515 53 0.0 0.0 0.35 0.70 0.66 91 1010.4
20260506144515 53 0.0 0.0 0.38 0.67 0.61 91 1010.3
20260506143517 53 0.0 0.0 0.39 0.62 0.56 90 1010.3
20260506142537 53 0.0 0.9 0.37 0.58 0.50 90 1010.2
20260506141517 53 0.0 0.9 0.31 0.52 0.44 90 1010.1
20260506140517 54 0.0 0.9 0.27 0.45 0.37 89 1010.2
20260506135518 54 0.0 1.7 0.28 0.39 0.31 88 1010.1
20260506134538 54 23 0.9 2.6 0.24 0.34 0.24 87 1010.1
20260506133517 55 0.0 1.7 0.17 0.28 0.17 85 1010.1
20260506132517 58 270 0.9 7.0 0.14 0.27 0.14 85 1009.9
20260506131517 59 0.0 0.0 0.13 0.27 0.13 85 1009.8
20260506130517 60 0.0 0.0 0.10 0.26 0.10 83 1009.8
20260506125538 61 0.0 0.0 0.03 0.23 0.03 81 1009.7
20260506124518 61 0.0 0.0 0.00 0.23 0.00 79 1009.4
20260506123517 62 0.0 0.0 0.00 0.24 0.00 80 1009.3
20260506122517 62 0.0 0.0 0.00 0.25 0.00 80 1009.3
20260506121517 63 0.0 1.7 0.00 0.27 0.00 77 1009.4
20260506120537 63 0.0 0.9 0.00 0.28 0.00 76 1009.4
20260506115517 64 0.0 0.9 0.00 0.28 0.00 73 1009.4
20260506114518 64 0.0 0.9 0.00 0.28 0.00 71 1009.4
20260506113517 64 0.0 0.0 0.00 0.28 0.00 71 1009.4
20260506112517 64 0.0 0.9 0.00 0.28 0.00 70 1009.4
20260506111519 64 0.0 0.9 0.00 0.28 0.00 69 1009.5
20260506110517 64 0.0 1.7 0.00 0.28 0.00 69 1009.7
20260506105517 64 0.0 1.7 0.00 0.28 0.00 65 1009.8
20260506104517 65 0.0 2.6 0.00 0.28 0.00 65 1009.9
20260506103517 65 0.0 1.7 0.00 0.28 0.00 66 1010.0
20260506102557 65 135 0.9 2.6 0.00 0.28 0.00 64 1010.0
20260506101517 66 0.0 0.9 0.00 0.28 0.00 61 1010.2
20260506100537 66 90 0.9 2.6 0.00 0.28 0.00 66 1010.3
20260506095537 65 0.0 1.7 0.00 0.28 0.00 64 1010.2
20260506094557 65 113 0.9 2.6 0.00 0.28 0.00 68 1010.3
20260506093517 64 90 0.9 2.6 0.00 0.28 0.00 69 1010.4
20260506092517 64 0.0 1.7 0.00 0.28 0.00 71 1010.4
20260506091517 63 0.0 1.7 0.00 0.28 0.00 74 1010.3
20260506090517 62 0.0 1.7 0.00 0.28 0.00 73 1010.2
20260506085516 61 0.0 0.9 0.00 0.28 0.00 76 1010.2
20260506084537 61 0.0 0.9 0.00 0.28 0.00 77 1010.3
20260506083516 62 0.0 0.9 0.00 0.28 0.00 76 1010.2
20260506082516 62 0.0 1.7 0.00 0.28 0.00 72 1010.3
20260506081516 62 0.0 1.7 0.00 0.28 0.00 75 1010.4
20260506080517 61 90 0.9 1.7 0.00 0.28 0.00 75 1010.3
20260506073516 58 0.0 0.9 0.00 0.28 0.00 84 1010.2
20260506072517 57 0.0 0.9 0.00 0.28 0.00 85 1010.0
20260506071516 57 0.0 0.9 0.00 0.28 0.00 87 1010.0
20260506070516 57 0.0 0.9 0.00 0.28 0.00 89 1009.9
20260506062516 54 0.0 0.9 0.00 0.28 0.00 93 1010.2
20260506061516 54 0.0 0.9 0.00 0.28 0.00 95 1010.3
20260506060517 52 0.0 0.0 0.00 0.28 0.00 95 1010.2
20260506050516 49 0.0 0.0 0.00 0.28 0.00 93 1010.0
20260506044516 49 0.0 0.0 0.00 0.28 0.00 93 1010.1
20260506043516 49 0.0 0.0 0.00 0.28 0.00 93 1010.0
20260506042516 49 0.0 0.0 0.00 0.28 0.00 93 1010.1
20260506041516 49 0.0 0.0 0.00 0.28 0.00 93 1010.1
20260506040516 49 0.0 0.9 0.00 0.28 0.00 93 1010.2
20260506035516 49 0.0 0.0 0.00 0.28 0.00 93 1010.1
20260506034516 49 0.0 0.9 0.00 0.28 0.00 93 1010.3
20260506033516 49 0.0 0.0 0.00 0.28 0.00 93 1010.3
20260506032516 49 0.0 0.0 0.00 0.28 0.00 93 1010.4
20260506031536 49 0.0 0.9 0.00 0.28 0.00 93 1010.1